Location: *
(28.3744°N, 81.5492°W)
Time: 03:05:26
(UTC+00:00)

CZ-3A R/B - Pass Details

Date: 15 June 2025
Orbit: 395 x 36077 km, 24.3° (Epoch: 11 July)

Event Time Altitude Azimuth Distance (km) Brightness Sun altitude
Rises 01:45:30 0° 212° (SSW) 2,540 5.1 -15.8°
Reaches altitude 10° 01:47:11 10° 194° (SSW) 1,992 4.4 -16.1°
Maximum altitude 01:50:41 25° 135° (SE) 2,046 4.1 -16.7°
Drops below altitude 10° 02:00:47 10° 86° (E) 6,140 6.7 -18.4°
Sets 02:14:21 0° 78° (ENE) 11,338 8.1 -20.6°
